This is the latest recevied weather packets stored in our database for station/object UR7D-12. If no packets are shown the sender has not sent any weather packets the latest 10 day(s).
| Time | Temp. | Humidity | Pressure | Rain* | Wind** | Luminosity | Snow |
|---|---|---|---|---|---|---|---|
| 1777423289 | 6.11° C | 41% | 993.9 hPa | 0 mm | - | - | - |
| 1777422989 | 6.67° C | 40% | 993.9 hPa | 0 mm | - | - | - |
| 1777422688 | 6.11° C | 40% | 993.9 hPa | 0 mm | - | - | - |
| 1777422388 | 6.67° C | 40% | 993.9 hPa | 0 mm | - | - | - |
| 1777421187 | 6.67° C | 39% | 993.9 hPa | 0 mm | - | - | - |
| 1777420887 | 6.67° C | 39% | 993.9 hPa | 0 mm | - | - | - |
| 1777419986 | 7.22° C | 38% | 994.1 hPa | 0 mm | - | - | - |
| 1777419686 | 7.22° C | 37% | 994 hPa | 0 mm | - | - | - |
| 1777419085 | 7.22° C | 37% | 994.1 hPa | 0 mm | - | - | - |
| 1777418484 | 7.22° C | 38% | 994.1 hPa | 0 mm | - | - | - |
| 1777418187 | 7.22° C | 37% | 994.2 hPa | 0 mm | - | - | - |
| 1777417884 | 7.22° C | 37% | 994.2 hPa | 0 mm | - | - | - |
| 1777417584 | 7.22° C | 38% | 994.1 hPa | 0 mm | - | - | - |
| 1777416984 | 7.22° C | 37% | 994.1 hPa | 0 mm | - | - | - |
| 1777413680 | 8.89° C | 35% | 994.2 hPa | 0 mm | - | - | - |
| 1777413382 | 8.89° C | 35% | 994.2 hPa | 0 mm | - | - | - |
| 1777412485 | 8.89° C | 35% | 994.2 hPa | 0 mm | - | - | - |
| 1777410677 | 8.89° C | 36% | 993.9 hPa | 0 mm | - | - | - |
| 1777410077 | 8.89° C | 37% | 993.8 hPa | 0 mm | - | - | - |
| 1777409776 | 8.89° C | 37% | 993.8 hPa | 0 mm | - | - | - |
| 1777408275 | 8.89° C | 38% | 993.6 hPa | 0 mm | - | - | - |
| 1777407674 | 8.89° C | 38% | 993.5 hPa | 0 mm | - | - | - |
| 1777407376 | 9.44° C | 38% | 993.6 hPa | 0 mm | - | - | - |
| 1777406473 | 9.44° C | 38% | 993.4 hPa | 0 mm | - | - | - |
| 1777405574 | 9.44° C | 38% | 993.3 hPa | 0 mm | - | - | - |
* Rain latest hour (hover to see other rain measurements)
** Current wind speed in m/s (hover to see current wind gust speed)